Regional Weather Roundup
Issued by NWS

Home | Current Version | Previous Version | Text Only | Print | Product List | Glossary Off
Versions: 1 2 3 4 5 6 7 8 9 10 11 12 13 14 15 16 17 18 19 20 21 22 23 24 25 26 27 28 29 30 31 32 33 34 35 36 37 38 39 40 41 42 43 44 45 46 47 48 49 50

000
ASUS43 KMKX 181421
RWRWI

WISCONSIN REGIONAL WEATHER ROUNDUP
NATIONAL WEATHER SERVICE MILWAUKEE/SULLIVAN WI
900 AM CDT SAT APR 18 2015

NOTE: "FAIR" INDICATES FEW OR NO CLOUDS BELOW 12,000 FEET WITH NO
SIGNIFICANT WEATHER AND/OR OBSTRUCTIONS TO VISIBILITY.

WIZ001-002-006>008-014>016-023>028-181500-
NORTHWEST WISCONSIN

CITY           SKY/WX    TMP DP  RH WIND       PRES   REMARKS
SUPERIOR ARPT  SUNNY     41  34  76 NE13G22   30.23S
ASHLAND        SUNNY     44  34  67 NE16G23   30.24R
HAYWARD        SUNNY     47  31  53 E12       30.17F
SIREN          SUNNY     49  32  52 E10       30.15S
CUMBERLAND     MOSUNNY   50  32  50 E8        30.13F
RICE LAKE      MOSUNNY   51  31  47 E13       30.15F
CHETEK         MOSUNNY   51  34  52 E8        30.13F
LADYSMITH      SUNNY     49  33  53 NE13      30.16F
EAU CLAIRE     MOSUNNY   53  32  44 E13G21    30.12S
MENOMONIE      MOSUNNY   54  32  43 E12G18    30.13S
NEW RICHMOND   MOSUNNY   52  32  45 E12G17    30.12S
OSCEOLA        MOSUNNY   53  33  46 E15       30.15S
$$

WIZ003>005-009-010-017-018-181500-
NORTH CENTRAL WISCONSIN

CITY           SKY/WX    TMP DP  RH WIND       PRES   REMARKS
MANITOWISH WTR SUNNY     42  32  69 E10       30.20S
ARBOR VITAE    SUNNY     43  32  65 E9        30.19F HAZE
WOODRUFF       SUNNY     43  32  65 E9        30.19F HAZE
RHINELANDER    SUNNY     44  32  62 NE12      30.18F
EAGLE RIVER    SUNNY     42  30  62 E8        30.20F
LAND O LAKES   SUNNY     42  32  67 E7        30.21F
PHILLIPS       SUNNY     46  32  59 NE13      30.16S
TOMAHAWK       SUNNY     47  32  55 E10       30.18S
MEDFORD        MOSUNNY   49  32  51 E13       30.14S
MERRILL        SUNNY     49  33  54 E9        30.17R
$$

WIZ029-030-035-036-043>047-181500-
CENTRAL WISCONSIN

CITY           SKY/WX    TMP DP  RH WIND       PRES   REMARKS
WAUSAU         MOSUNNY   51  33  50 E10       30.15R
MOSINEE        SUNNY     50  32  50 NE14G21   30.16S
MARSHFIELD     MOSUNNY   53  31  42 E15       30.13S
STEVENS POINT  MOSUNNY   51  30  45 E13G20    30.16R
WAUPACA        MOSUNNY   54  34  48 NE9       30.18R
WAUTOMA        MOSUNNY   54  33  44 NE13      30.15S
WISC RAPIDS    MOSUNNY   55  28  35 E12       30.15R
CAMP DOUGLAS   MOSUNNY   57  34  42 E16       30.12S
$$

WIZ011>013-019>022-031-037>040-048>050-181500-
NORTHEAST WISCONSIN

CITY           SKY/WX    TMP DP  RH WIND       PRES   REMARKS
ANTIGO         SUNNY     46  34  62 NE10      30.17S
SHAWANO        MOSUNNY   50  35  56 NE15      30.19S
OCONTO         SUNNY     49  34  57 NE12      30.19S
STURGEON BAY   SUNNY     45  34  65 N13       30.22S
GREEN BAY      MOSUNNY   49  38  65 NE22G29   30.18S
MANITOWOC      SUNNY     49  37  63 NE15G22   30.17
APPLETON       MOSUNNY   48  34  57 NE17G23   30.17
CLINTONVILLE   MOSUNNY   50  32  50 NE14G23   30.18R
OSHKOSH        MOSUNNY   50  38  63 NE12      30.16R
$$

WIZ032>034-041-042-053>061-181500-
SOUTHWEST WISCONSIN

CITY           SKY/WX    TMP DP  RH WIND       PRES   REMARKS
LA CROSSE      SUNNY     59  33  37 E8G20     30.08S
SPARTA         MOSUNNY   56  32  39 E14       30.11S
VIROQUA        SUNNY     57  34  40 E17G25    30.08R
BOSCOBEL       SUNNY     62  41  46 NE9       30.07R
PRAIRIE DU CHI MOSUNNY   60  43  54 E7        30.05S
PLATTEVILLE    MOSUNNY   65  38  37 NE16      30.04S
$$

WIZ056-057-062-063-064-067-068-181500-
SOUTH CENTRAL WISCONSIN

CITY           SKY/WX    TMP DP  RH WIND       PRES   REMARKS
REEDSBURG      SUNNY     55  35  48 E13G18    30.10S
BARABOO/DELLS  SUNNY     54  32  43 E23       30.11S
LONE ROCK      SUNNY     59  38  45 E16G28    30.09R
MINERAL POINT  MOSUNNY   63  36  36 NE17      30.06
MADISON        PTSUNNY   58  39  49 NE21      30.09S
MIDDLETON      MOSUNNY   59  38  45 E16       30.10S
WATERTOWN      SUNNY     55  37  49 NE15      30.10F
MONROE         MOSUNNY   63  43  48 NE16G24   30.06R
JANESVILLE     SUNNY     63  43  48 NE14G23   30.07R
$$

WIZ051-052-058>065-066-070>072-181500-
SOUTHEAST WISCONSIN

CITY           SKY/WX    TMP DP  RH WIND       PRES   REMARKS
MILWAUKEE      MOSUNNY   45  35  68 N25G32    30.13S
WAUKESHA       MOSUNNY   50  34  53 NE17G23   30.12F
MILWAUKEE/TIMM SUNNY     48  34  57 NE16G28   30.14S
RACINE         SUNNY     46  35  65 N24G32    30.12S
BURLINGTON     SUNNY     53  33  46 NE20G28   30.10R
KENOSHA        SUNNY     53  36  52 NE20G26   30.10S
FOND DU LAC    MOSUNNY   52  36  54 NE15      30.15S
SHEBOYGAN      SUNNY     51  38  60 NE22G29   30.16R
WEST BEND      SUNNY     50  34  53 NE23G29   30.14S
JUNEAU         SUNNY     54  36  49 NE13      30.13S
$$

LSZ147-162-181500-
LAKE SUPERIOR

STATION/POSITION TIME  TEMP    WIND        PRES    WAVE
                       AIR SEA DIR/SP/G            HT/PER
                 (UTC) (F)     (DEG/KT/KT) (MB)    (FT/S)
DEVILS ISLAND    1400   37      90/ 11/ 12 1025.9R
PORT WING        1340   45      70/  8/ 18 1024.0R
SAXON HARBOR     1300   42      60/ 10/ 12 1023.4R
$$

LMZ867-665-643>646-181500-
LAKE MICHIGAN

STATION/POSITION TIME  TEMP    WIND        PRES    WAVE
                       AIR SEA DIR/SP/G            HT/PER
                 (UTC) (F)     (DEG/KT/KT) (MB)    (FT/S)
CHAMBERS ISLAND  1300   41     360/ 14/ 19 1023.0R
NORTHPORT PIER   1301   39     350/ 12/ 24 1022.7R
SISTER BAY       1217   43      10/ 20/ 30   N/A
KEWAUNEE LAKESHO 1300   46      30/ 14/ 18 1020.8R
SHEBOYGAN LAKESH 1400   41      10/ 19/ 22 1022.1R
PORT WASHINGTON  1300   48      30/ 14     1021.3R
MILWAUKEE LAKESH 1400   43      10/ 23/ 27   N/A
KENOSHA   LAKESH 1400   44      10/ 27/ 32 1019.0R
$$

TC  - TEMPERATURE IN CELSIUS
VSB - VISIBILITY IN STATUTE MILES
WCI - WIND CHILL INDEX
HX  - HEAT INDEX




USA.gov is the U.S. government's official web portal to all federal, state and local government web resources and services.